Location: American Medical Response
(33.3472°N, 96.5511°W)
Time: 20:55:52
(UTC+00:00)

SL-4 R/B - Pass Details

Date: 11 July 2022
Orbit: 425 x 653 km, 51.6° (Epoch: 11 August)

Event Time Altitude Azimuth Distance (km) Brightness Sun altitude
Rises 08:51:52 0° 330° (NNW) 2,526 5.7 -25.3°
Reaches altitude 10° 08:54:56 10° 358° (N) 1,696 5.2 -24.9°
Maximum altitude 08:56:55 14° 29° (NNE) 1,520 5.2 -24.7°
Drops below altitude 10° 08:58:57 10° 60° (ENE) 1,764 5.5 -24.4°
Sets 09:02:15 0° 87° (E) 2,715 6.1 -24.0°
